Location: Aldenham
(51.6667°N, 0.3500°W)
Time: 05:26:20
(UTC+00:00)

A-11 Canister half - All Passes

Search period start: 18 February 2026 00:00
Search period end: 28 February 2026 00:00
Orbit: 1525 x 1682 km, 47.3° (Epoch: 17 February)

Date Brightness Start Highest point End Pass type
(mag) Time Alt. Az. Time Alt. Az. Time Alt. Az.
18 Feb - 15:03:51 10° S 15:10:51 24° SE 15:17:48 10° E daylight
18 Feb - 17:05:18 10° SW 17:14:16 53° SSE 17:23:11 10° E daylight
18 Feb - 19:09:22 10° W 19:18:35 69° S 19:27:50 10° E visible
18 Feb - 21:14:00 10° W 21:22:53 52° SSW 21:31:52 10° SE visible
18 Feb - 23:19:27 10° W 23:26:16 23° SW 23:33:12 10° S visible
19 Feb - 14:42:17 10° S 14:49:07 23° SE 14:55:52 10° E daylight
19 Feb - 16:43:33 10° SW 16:52:29 52° SSE 17:01:21 10° E daylight
19 Feb - 18:47:33 10° W 18:56:46 69° S 19:06:01 10° E visible
19 Feb - 20:52:11 10° W 21:01:06 53° SSW 21:10:06 10° SE visible
19 Feb - 22:57:32 10° W 23:04:32 25° SW 23:11:37 10° S visible
20 Feb - 14:20:44 10° S 14:27:24 22° SE 14:33:57 10° E daylight
20 Feb - 16:21:46 10° SW 16:30:42 50° SSE 16:39:31 10° E daylight
20 Feb - 18:25:44 10° WSW 18:34:58 69° S 18:44:11 10° E visible
20 Feb - 20:30:22 10° W 20:39:18 55° SSW 20:48:20 10° SE visible
20 Feb - 22:35:38 10° W 22:42:47 26° SW 22:50:02 10° S visible
21 Feb - 13:59:13 10° S 14:05:39 21° SE 14:12:01 10° E daylight
21 Feb - 16:00:01 10° SW 16:08:54 49° SSE 16:17:42 10° E daylight
21 Feb - 18:03:54 10° WSW 18:13:09 69° S 18:22:22 10° E visible
21 Feb - 20:08:32 10° W 20:17:30 56° SSW 20:26:33 10° SE visible
21 Feb - 22:13:44 10° W 22:21:03 27° SW 22:28:26 10° S visible
22 Feb - 13:37:42 10° S 13:43:55 20° SE 13:50:03 10° E daylight
22 Feb - 15:38:16 10° SW 15:47:08 48° SSE 15:55:52 10° E daylight
22 Feb - 17:42:05 10° WSW 17:51:21 68° S 18:00:33 10° E visible
22 Feb - 19:46:42 10° W 19:55:43 57° SSW 20:04:46 10° SE visible
22 Feb - 21:51:51 10° W 21:59:18 28° SW 22:06:49 10° SSE visible
23 Feb - 13:16:13 10° S 13:22:11 19° SE 13:28:05 10° E daylight
23 Feb - 15:16:31 10° SW 15:25:20 46° SSE 15:34:02 10° E daylight
23 Feb - 17:20:15 10° WSW 17:29:32 68° S 17:38:44 10° E daylight
23 Feb - 19:24:53 10° W 19:33:55 58° SSW 19:42:59 10° ESE visible
23 Feb - 21:29:58 10° W 21:37:33 29° SW 21:45:12 10° SSE visible
24 Feb - 12:54:45 10° SSE 13:00:28 18° SE 13:06:05 10° E daylight
24 Feb - 14:54:46 10° SW 15:03:34 45° SSE 15:12:12 10° E daylight
24 Feb - 16:58:26 10° WSW 17:07:43 68° S 17:16:54 10° E daylight
24 Feb - 19:03:03 10° W 19:12:08 59° SSW 19:21:11 10° ESE visible
24 Feb - 21:08:05 10° W 21:15:49 31° SW 21:23:34 10° SSE visible
25 Feb - 12:33:20 10° SSE 12:38:44 17° SE 12:44:03 10° E daylight
25 Feb - 14:33:01 10° SW 14:41:47 44° SSE 14:50:23 10° E daylight
25 Feb - 16:36:36 10° WSW 16:45:54 67° S 16:55:05 10° E daylight
25 Feb - 18:41:14 10° W 18:50:20 60° SSW 18:59:25 10° ESE visible
25 Feb - 20:46:13 10° W 20:54:03 32° SW 21:01:55 10° SSE visible
26 Feb - 12:11:56 10° SSE 12:17:00 16° SE 12:22:01 10° E daylight
26 Feb - 14:11:17 10° SW 14:20:00 42° SSE 14:28:32 10° E daylight
26 Feb - 16:14:47 10° WSW 16:24:05 67° S 16:33:16 10° E daylight
26 Feb - 18:19:23 10° W 18:28:31 61° SSW 18:37:37 10° ESE visible
26 Feb - 20:24:21 10° W 20:32:18 33° SW 20:40:16 10° SSE visible
27 Feb - 11:50:35 10° SSE 11:55:17 15° SE 11:59:55 10° E daylight
27 Feb - 13:49:33 10° SSW 13:58:14 41° SSE 14:06:43 10° E daylight
27 Feb - 15:52:58 10° WSW 16:02:16 66° S 16:11:27 10° E daylight
27 Feb - 17:57:33 10° W 18:06:43 62° SSW 18:15:50 10° ESE visible
27 Feb - 20:02:29 10° W 20:10:32 34° SW 20:18:36 10° SSE visible
